Location: Praha
(50.0830°N, 14.4670°E)
Time: 04:53:09
(UTC+01:00)

ISS - Pass Details

Date: 14 December 2025
Orbit: 416 x 421 km, 51.6° (Epoch: 07 December)

Event Time Altitude Azimuth Distance (km) Brightness Sun altitude
Rises 06:24:50 0° 215° (SW) 2,355 -0.1 -13.3°
Reaches altitude 10° 06:27:09 10° 202° (SSW) 1,496 -1.0 -13.0°
Maximum altitude 06:29:58 25° 145° (SE) 886 -1.4 -12.6°
Drops below altitude 10° 06:32:48 10° 87° (E) 1,503 0.2 -12.1°
Sets 06:35:07 0° 74° (ENE) 2,370 1.0 -11.8°
